Year,Month,Day,Hour,Minute,Value (Times are PST for windspeed in km/hr)
2018,03,22,00,00,3.50
2018,03,22,00,01,3.70
2018,03,22,00,02,1.60
2018,03,22,00,03,2.00
2018,03,22,00,04,4.90
2018,03,22,00,05,2.00
2018,03,22,00,06,1.10
2018,03,22,00,07,2.70
2018,03,22,00,08,0.30
2018,03,22,00,09,1.60
2018,03,22,00,10,2.30
2018,03,22,00,11,3.50
2018,03,22,00,12,1.50
2018,03,22,00,13,2.10
2018,03,22,00,14,0.40
2018,03,22,00,15,1.90
2018,03,22,00,16,4.30
2018,03,22,00,17,4.30
2018,03,22,00,18,0.50
2018,03,22,00,19,6.50
2018,03,22,00,20,6.40
2018,03,22,00,21,3.90
2018,03,22,00,22,5.00
2018,03,22,00,23,9.00
2018,03,22,00,24,8.10
2018,03,22,00,25,7.20
2018,03,22,00,26,7.50
2018,03,22,00,27,4.50
2018,03,22,00,28,2.00
2018,03,22,00,29,3.30
2018,03,22,00,30,3.60
2018,03,22,00,31,6.00
2018,03,22,00,32,1.70
2018,03,22,00,33,3.60
2018,03,22,00,34,2.90
2018,03,22,00,35,1.30
2018,03,22,00,36,4.10
2018,03,22,00,37,4.90
2018,03,22,00,38,2.70
2018,03,22,00,39,2.60
2018,03,22,00,40,3.70
2018,03,22,00,41,3.90
2018,03,22,00,42,3.30
2018,03,22,00,43,5.80
2018,03,22,00,44,4.90
2018,03,22,00,45,5.00
2018,03,22,00,46,4.60
2018,03,22,00,47,4.10
2018,03,22,00,48,3.80
2018,03,22,00,49,9.20
2018,03,22,00,50,6.10
2018,03,22,00,51,5.00
2018,03,22,00,52,2.30
2018,03,22,00,53,3.90
2018,03,22,00,54,1.80
2018,03,22,00,55,3.00
2018,03,22,00,56,4.00
2018,03,22,00,57,6.20
2018,03,22,00,58,6.70
2018,03,22,00,59,7.40
2018,03,22,01,00,6.90
2018,03,22,01,01,7.70
2018,03,22,01,02,6.10
2018,03,22,01,03,7.80
2018,03,22,01,04,6.40
2018,03,22,01,05,6.10
2018,03,22,01,06,7.10
2018,03,22,01,07,6.90
2018,03,22,01,08,6.50
2018,03,22,01,09,7.20
2018,03,22,01,10,8.90
2018,03,22,01,11,6.30
2018,03,22,01,12,7.90
2018,03,22,01,13,5.80
2018,03,22,01,14,6.40
2018,03,22,01,15,5.10
2018,03,22,01,16,7.70
2018,03,22,01,17,7.00
2018,03,22,01,18,9.80
2018,03,22,01,19,8.80
2018,03,22,01,20,10.10
2018,03,22,01,21,7.50
2018,03,22,01,22,6.00
2018,03,22,01,23,7.00
2018,03,22,01,24,6.10
2018,03,22,01,25,4.30
2018,03,22,01,26,5.10
2018,03,22,01,27,6.70
2018,03,22,01,28,7.50
2018,03,22,01,29,4.60
2018,03,22,01,30,6.30
2018,03,22,01,31,6.10
2018,03,22,01,32,7.90
2018,03,22,01,33,8.60
2018,03,22,01,34,5.40
2018,03,22,01,35,4.90
2018,03,22,01,36,6.10
2018,03,22,01,37,7.30
2018,03,22,01,38,5.00
2018,03,22,01,39,6.40
2018,03,22,01,40,4.60
2018,03,22,01,41,3.10
2018,03,22,01,42,5.50
2018,03,22,01,43,6.00
2018,03,22,01,44,4.80
2018,03,22,01,45,4.80
2018,03,22,01,46,4.80
2018,03,22,01,47,4.80
2018,03,22,01,48,4.50
2018,03,22,01,49,1.30
2018,03,22,01,50,3.50
2018,03,22,01,51,3.70
2018,03,22,01,52,3.20
2018,03,22,01,53,3.90
2018,03,22,01,54,5.60
2018,03,22,01,55,3.90
2018,03,22,01,56,2.80
2018,03,22,01,57,4.00
2018,03,22,01,58,2.60
2018,03,22,01,59,2.90
2018,03,22,02,00,2.30
2018,03,22,02,01,4.00
2018,03,22,02,02,2.90
2018,03,22,02,03,2.80
2018,03,22,02,04,3.20
2018,03,22,02,05,3.60
2018,03,22,02,06,2.70
2018,03,22,02,07,0.60
2018,03,22,02,08,0.90
2018,03,22,02,09,0.00
2018,03,22,02,10,0.00
2018,03,22,02,11,0.10
2018,03,22,02,12,0.00
2018,03,22,02,13,0.00
2018,03,22,02,14,0.10
2018,03,22,02,15,0.10
2018,03,22,02,16,1.50
2018,03,22,02,17,2.30
2018,03,22,02,18,1.30
2018,03,22,02,19,2.40
2018,03,22,02,20,3.20
2018,03,22,02,21,1.90
2018,03,22,02,22,0.70
2018,03,22,02,23,1.60
2018,03,22,02,24,3.70
2018,03,22,02,25,4.00
2018,03,22,02,26,1.70
2018,03,22,02,27,0.40
2018,03,22,02,28,1.50
2018,03,22,02,29,0.00
2018,03,22,02,30,1.00
2018,03,22,02,31,1.90
2018,03,22,02,32,2.90
2018,03,22,02,33,5.70
2018,03,22,02,34,4.30
2018,03,22,02,35,3.90
2018,03,22,02,36,3.30
2018,03,22,02,37,3.10
2018,03,22,02,38,4.50
2018,03,22,02,39,2.10
2018,03,22,02,40,2.90
2018,03,22,02,41,3.60
2018,03,22,02,42,5.70
2018,03,22,02,43,3.80
2018,03,22,02,44,4.60
2018,03,22,02,45,2.00
2018,03,22,02,46,0.20
2018,03,22,02,47,1.90
2018,03,22,02,48,2.00
2018,03,22,02,49,1.10
2018,03,22,02,50,1.10
2018,03,22,02,51,2.70
2018,03,22,02,52,1.00
2018,03,22,02,53,1.90
2018,03,22,02,54,0.20
2018,03,22,02,55,2.50
2018,03,22,02,56,2.50
2018,03,22,02,57,1.00
2018,03,22,02,58,2.10
2018,03,22,02,59,1.10
2018,03,22,03,00,4.30
2018,03,22,03,01,3.00
2018,03,22,03,02,0.20
2018,03,22,03,03,3.40
2018,03,22,03,04,6.30
2018,03,22,03,05,4.70
2018,03,22,03,06,6.00
2018,03,22,03,07,6.70
2018,03,22,03,08,14.40
2018,03,22,03,09,12.50
2018,03,22,03,10,12.00
2018,03,22,03,11,9.20
2018,03,22,03,12,8.40
2018,03,22,03,13,7.60
2018,03,22,03,14,7.30
2018,03,22,03,15,8.90
2018,03,22,03,16,5.60
2018,03,22,03,17,4.60
2018,03,22,03,18,5.40
2018,03,22,03,19,4.20
2018,03,22,03,20,6.40
2018,03,22,03,21,4.70
2018,03,22,03,22,2.90
2018,03,22,03,23,0.00
2018,03,22,03,24,0.10
2018,03,22,03,25,0.20
2018,03,22,03,26,0.90
2018,03,22,03,27,4.00
2018,03,22,03,28,4.30
2018,03,22,03,29,4.20
2018,03,22,03,30,2.20
2018,03,22,03,31,0.00
2018,03,22,03,32,1.40
2018,03,22,03,33,1.00
2018,03,22,03,34,0.50
2018,03,22,03,35,0.40
2018,03,22,03,36,0.00
2018,03,22,03,37,0.00
2018,03,22,03,38,0.90
2018,03,22,03,39,1.10
2018,03,22,03,40,2.00
2018,03,22,03,41,1.80
2018,03,22,03,42,3.60
2018,03,22,03,43,2.30
2018,03,22,03,44,1.00
2018,03,22,03,45,1.40
2018,03,22,03,46,1.50
2018,03,22,03,47,2.80
2018,03,22,03,48,3.00
2018,03,22,03,49,2.60
2018,03,22,03,50,0.40
2018,03,22,03,51,0.60
2018,03,22,03,52,0.50
2018,03,22,03,53,3.20
2018,03,22,03,54,1.60
2018,03,22,03,55,2.40
2018,03,22,03,56,4.10
2018,03,22,03,57,2.30
2018,03,22,03,58,0.80
2018,03,22,03,59,2.10
2018,03,22,04,00,0.00
2018,03,22,04,01,1.70
2018,03,22,04,02,2.60
2018,03,22,04,03,3.00
2018,03,22,04,04,2.80
2018,03,22,04,05,2.90
2018,03,22,04,06,5.70
2018,03,22,04,07,7.00
2018,03,22,04,08,5.00
2018,03,22,04,09,2.30
2018,03,22,04,10,1.20
2018,03,22,04,11,2.80
2018,03,22,04,12,3.40
2018,03,22,04,13,2.50
2018,03,22,04,14,4.00
2018,03,22,04,15,1.10
2018,03,22,04,16,2.10
2018,03,22,04,17,3.30
2018,03,22,04,18,5.60
2018,03,22,04,19,5.20
2018,03,22,04,20,4.10
2018,03,22,04,21,2.80
2018,03,22,04,22,2.40
2018,03,22,04,23,3.90
2018,03,22,04,24,4.80
2018,03,22,04,25,4.00
2018,03,22,04,26,4.20
2018,03,22,04,27,4.80
2018,03,22,04,28,1.80
2018,03,22,04,29,3.40
2018,03,22,04,30,6.50
2018,03,22,04,31,4.10
2018,03,22,04,32,0.70
2018,03,22,04,33,2.10
2018,03,22,04,34,4.00
2018,03,22,04,35,3.90
2018,03,22,04,36,4.80
2018,03,22,04,37,6.90
2018,03,22,04,38,7.60
2018,03,22,04,39,5.00
2018,03,22,04,40,2.90
2018,03,22,04,41,3.30
2018,03,22,04,42,5.60
2018,03,22,04,43,8.00
2018,03,22,04,44,6.40
2018,03,22,04,45,5.50
2018,03,22,04,46,4.90
2018,03,22,04,47,7.30
2018,03,22,04,48,5.50
2018,03,22,04,49,6.10
2018,03,22,04,50,6.00
2018,03,22,04,51,8.20
2018,03,22,04,52,9.00
2018,03,22,04,53,5.00
2018,03,22,04,54,7.00
2018,03,22,04,55,10.60
2018,03,22,04,56,5.30
2018,03,22,04,57,7.90
2018,03,22,04,58,9.90
2018,03,22,04,59,8.10
2018,03,22,05,00,6.70
2018,03,22,05,01,6.90
2018,03,22,05,02,6.10
2018,03,22,05,03,6.20
2018,03,22,05,04,6.30
2018,03,22,05,05,5.60
2018,03,22,05,06,6.00
2018,03,22,05,07,9.70
2018,03,22,05,08,6.50
2018,03,22,05,09,3.00
2018,03,22,05,10,5.30
2018,03,22,05,11,5.90
2018,03,22,05,12,6.40
2018,03,22,05,13,5.80
2018,03,22,05,14,6.10
2018,03,22,05,15,4.80
2018,03,22,05,16,7.50
2018,03,22,05,17,2.70
2018,03,22,05,18,6.00
2018,03,22,05,19,3.90
2018,03,22,05,20,2.30
2018,03,22,05,21,5.30
2018,03,22,05,22,7.60
2018,03,22,05,23,8.20
2018,03,22,05,24,7.20
2018,03,22,05,25,4.00
2018,03,22,05,26,3.00
2018,03,22,05,27,4.00
2018,03,22,05,28,7.70
2018,03,22,05,29,5.10
2018,03,22,05,30,10.20
2018,03,22,05,31,6.90
2018,03,22,05,32,4.70
2018,03,22,05,33,4.90
2018,03,22,05,34,4.60
2018,03,22,05,35,7.90
2018,03,22,05,36,6.70
2018,03,22,05,37,6.90
2018,03,22,05,38,7.00
2018,03,22,05,39,4.40
2018,03,22,05,40,4.80
2018,03,22,05,41,3.40
2018,03,22,05,42,4.20
2018,03,22,05,43,2.30
2018,03,22,05,44,4.20
2018,03,22,05,45,3.00
2018,03,22,05,46,2.40
2018,03,22,05,47,3.70
2018,03,22,05,48,3.50
2018,03,22,05,49,2.90
2018,03,22,05,50,1.20
2018,03,22,05,51,1.00
2018,03,22,05,52,2.30
2018,03,22,05,53,4.00
2018,03,22,05,54,1.90
2018,03,22,05,55,1.10
2018,03,22,05,56,0.00
2018,03,22,05,57,0.10
2018,03,22,05,58,1.10
2018,03,22,05,59,0.50
2018,03,22,06,00,0.00
2018,03,22,06,01,2.30
2018,03,22,06,02,1.00
2018,03,22,06,03,2.00
2018,03,22,06,04,0.60
2018,03,22,06,05,0.10
2018,03,22,06,06,0.40
2018,03,22,06,07,0.10
2018,03,22,06,08,0.00
2018,03,22,06,09,0.00
2018,03,22,06,10,0.00
2018,03,22,06,11,0.00
2018,03,22,06,12,0.00
2018,03,22,06,13,0.00
2018,03,22,06,14,0.00
2018,03,22,06,15,0.00
2018,03,22,06,16,0.00
2018,03,22,06,17,0.00
2018,03,22,06,18,0.00
2018,03,22,06,19,0.00
2018,03,22,06,20,0.00
2018,03,22,06,21,0.00
2018,03,22,06,22,0.00
2018,03,22,06,23,0.00
2018,03,22,06,24,0.00
2018,03,22,06,25,0.00
2018,03,22,06,26,0.00
2018,03,22,06,27,0.00
2018,03,22,06,28,0.00
2018,03,22,06,29,0.00
2018,03,22,06,30,0.00
2018,03,22,06,31,0.00
2018,03,22,06,32,0.00
2018,03,22,06,33,0.00
2018,03,22,06,34,0.00
2018,03,22,06,35,0.00
2018,03,22,06,36,0.00
2018,03,22,06,37,0.00
2018,03,22,06,38,0.00
2018,03,22,06,39,0.00
2018,03,22,06,40,0.00
2018,03,22,06,41,0.00
2018,03,22,06,42,0.00
2018,03,22,06,43,0.00
2018,03,22,06,44,0.00
2018,03,22,06,45,0.00
2018,03,22,06,46,0.00
2018,03,22,06,47,0.00
2018,03,22,06,48,0.00
2018,03,22,06,49,0.00
2018,03,22,06,50,0.00
2018,03,22,06,51,0.00
2018,03,22,06,52,0.00
2018,03,22,06,53,0.00
2018,03,22,06,54,0.00
2018,03,22,06,55,0.00
2018,03,22,06,56,0.00
2018,03,22,06,57,0.00
2018,03,22,06,58,0.00
2018,03,22,06,59,0.00
2018,03,22,07,00,0.00
2018,03,22,07,01,0.00
2018,03,22,07,02,0.00
2018,03,22,07,03,0.00
2018,03,22,07,04,2.00
2018,03,22,07,05,2.90
2018,03,22,07,06,0.40
2018,03,22,07,07,0.10
2018,03,22,07,08,1.60
2018,03,22,07,09,2.60
2018,03,22,07,10,2.60
2018,03,22,07,11,2.80
2018,03,22,07,12,1.90
2018,03,22,07,13,0.80
2018,03,22,07,14,1.30
2018,03,22,07,15,0.60
2018,03,22,07,16,1.50
2018,03,22,07,17,0.20
2018,03,22,07,18,0.00
2018,03,22,07,19,0.10
2018,03,22,07,20,0.10
2018,03,22,07,21,0.50
2018,03,22,07,22,0.00
2018,03,22,07,23,0.00
2018,03,22,07,24,0.00
2018,03,22,07,25,0.00
2018,03,22,07,26,0.00
2018,03,22,07,27,0.00
2018,03,22,07,28,0.00
2018,03,22,07,29,0.00
2018,03,22,07,30,0.00
2018,03,22,07,31,0.00
2018,03,22,07,32,0.00
2018,03,22,07,33,0.10
2018,03,22,07,34,0.20
2018,03,22,07,35,0.00
2018,03,22,07,36,0.00
2018,03,22,07,37,1.30
2018,03,22,07,38,3.10
2018,03,22,07,39,1.70
2018,03,22,07,40,0.40
2018,03,22,07,41,0.90
2018,03,22,07,42,1.60
2018,03,22,07,43,3.80
2018,03,22,07,44,2.40
2018,03,22,07,45,4.00
2018,03,22,07,46,3.70
2018,03,22,07,47,3.90
2018,03,22,07,48,2.00
2018,03,22,07,49,2.20
2018,03,22,07,50,4.20
2018,03,22,07,51,3.90
2018,03,22,07,52,3.20
2018,03,22,07,53,3.60
2018,03,22,07,54,3.60
2018,03,22,07,55,2.80
2018,03,22,07,56,4.00
2018,03,22,07,57,7.60
2018,03,22,07,58,6.60
2018,03,22,07,59,6.30
2018,03,22,08,00,6.60
2018,03,22,08,01,7.30
2018,03,22,08,02,6.70
2018,03,22,08,03,6.70
2018,03,22,08,04,7.30
2018,03,22,08,05,8.90
2018,03,22,08,06,9.20
2018,03,22,08,07,9.40
2018,03,22,08,08,8.40
2018,03,22,08,09,8.00
2018,03,22,08,10,7.30
2018,03,22,08,11,8.40
2018,03,22,08,12,7.20
2018,03,22,08,13,5.40
2018,03,22,08,14,3.40
2018,03,22,08,15,5.60
2018,03,22,08,16,5.60
2018,03,22,08,17,4.80
2018,03,22,08,18,5.10
2018,03,22,08,19,4.60
2018,03,22,08,20,4.30
2018,03,22,08,21,3.90
2018,03,22,08,22,4.50
2018,03,22,08,23,4.40
2018,03,22,08,24,6.60
2018,03,22,08,25,7.90
2018,03,22,08,26,7.10
2018,03,22,08,27,6.00
2018,03,22,08,28,4.10
2018,03,22,08,29,5.90
2018,03,22,08,30,6.00
2018,03,22,08,31,5.90
2018,03,22,08,32,6.10
2018,03,22,08,33,6.60
2018,03,22,08,34,6.10
2018,03,22,08,35,6.80
2018,03,22,08,36,5.20
2018,03,22,08,37,5.50
2018,03,22,08,38,7.30
2018,03,22,08,39,6.40
2018,03,22,08,40,6.20
2018,03,22,08,41,4.50
2018,03,22,08,42,5.10
2018,03,22,08,43,6.40
2018,03,22,08,44,5.60
2018,03,22,08,45,3.90
2018,03,22,08,46,3.60
2018,03,22,08,47,3.70
2018,03,22,08,48,4.50
2018,03,22,08,49,3.60
2018,03,22,08,50,2.80
2018,03,22,08,51,0.80
2018,03,22,08,52,1.80
2018,03,22,08,53,4.50
2018,03,22,08,54,3.70
2018,03,22,08,55,5.00
2018,03,22,08,56,4.20
2018,03,22,08,57,4.10
2018,03,22,08,58,4.20
2018,03,22,08,59,5.10
2018,03,22,09,00,4.30
2018,03,22,09,01,3.30
2018,03,22,09,02,3.90
2018,03,22,09,03,3.80
2018,03,22,09,04,5.10
2018,03,22,09,05,4.00
2018,03,22,09,06,4.90
2018,03,22,09,07,6.00
2018,03,22,09,08,6.40
2018,03,22,09,09,6.50
2018,03,22,09,10,5.20
2018,03,22,09,11,5.80
2018,03,22,09,12,6.00
2018,03,22,09,13,2.70
2018,03,22,09,14,3.50
2018,03,22,09,15,6.90
2018,03,22,09,16,6.10
2018,03,22,09,17,4.40
2018,03,22,09,18,4.00
2018,03,22,09,19,4.70
2018,03,22,09,20,3.70
2018,03,22,09,21,4.90
2018,03,22,09,22,5.10
2018,03,22,09,23,3.70
2018,03,22,09,24,3.40
2018,03,22,09,25,0.80
2018,03,22,09,26,1.60
2018,03,22,09,27,2.10
2018,03,22,09,28,2.90
2018,03,22,09,29,4.60
2018,03,22,09,30,5.70
2018,03,22,09,31,4.90
2018,03,22,09,32,3.40
2018,03,22,09,33,2.90
2018,03,22,09,34,5.00
2018,03,22,09,35,5.10
2018,03,22,09,36,3.40
2018,03,22,09,37,3.50
2018,03,22,09,38,3.70
2018,03,22,09,39,4.70
2018,03,22,09,40,4.50
2018,03,22,09,41,5.50
2018,03,22,09,42,5.10
2018,03,22,09,43,4.20
2018,03,22,09,44,2.70
2018,03,22,09,45,3.70
2018,03,22,09,46,1.20
2018,03,22,09,47,2.90
2018,03,22,09,48,3.40
2018,03,22,09,49,3.70
2018,03,22,09,50,4.20
2018,03,22,09,51,4.80
2018,03,22,09,52,3.40
2018,03,22,09,53,4.20
2018,03,22,09,54,8.70
2018,03,22,09,55,6.90
2018,03,22,09,56,4.90
2018,03,22,09,57,4.60
2018,03,22,09,58,4.30
2018,03,22,09,59,6.80
2018,03,22,10,00,4.00
2018,03,22,10,01,5.80
2018,03,22,10,02,2.90
2018,03,22,10,03,6.50
2018,03,22,10,04,6.30
2018,03,22,10,05,5.60
2018,03,22,10,06,5.90
2018,03,22,10,07,5.20
2018,03,22,10,08,7.20
2018,03,22,10,09,6.80
2018,03,22,10,10,10.50
2018,03,22,10,11,9.80
2018,03,22,10,12,7.60
2018,03,22,10,13,8.00
2018,03,22,10,14,9.70
2018,03,22,10,15,15.80
2018,03,22,10,16,11.00
2018,03,22,10,17,12.40
2018,03,22,10,18,13.20
2018,03,22,10,19,9.70
2018,03,22,10,20,8.70
2018,03,22,10,21,7.90
2018,03,22,10,22,6.00
2018,03,22,10,23,12.10
2018,03,22,10,24,15.90
2018,03,22,10,25,8.20
2018,03,22,10,26,6.40
2018,03,22,10,27,10.70
2018,03,22,10,28,7.90
2018,03,22,10,29,12.30
2018,03,22,10,30,9.60
2018,03,22,10,31,10.50
2018,03,22,10,32,5.30
2018,03,22,10,33,6.60
2018,03,22,10,34,11.90
2018,03,22,10,35,9.50
2018,03,22,10,36,8.10
2018,03,22,10,37,7.50
2018,03,22,10,38,6.10
2018,03,22,10,39,8.90
2018,03,22,10,40,9.90
2018,03,22,10,41,9.60
2018,03,22,10,42,12.50
2018,03,22,10,43,11.30
2018,03,22,10,44,9.00
2018,03,22,10,45,6.60
2018,03,22,10,46,4.80
2018,03,22,10,47,1.70
2018,03,22,10,48,0.10
2018,03,22,10,49,2.00
2018,03,22,10,50,0.20
2018,03,22,10,51,0.70
2018,03,22,10,52,2.60
2018,03,22,10,53,6.30
2018,03,22,10,54,7.20
2018,03,22,10,55,8.00
2018,03,22,10,56,5.40
2018,03,22,10,57,5.40
2018,03,22,10,58,7.30
2018,03,22,10,59,8.90
2018,03,22,11,00,5.10
2018,03,22,11,01,12.80
2018,03,22,11,02,10.30
2018,03,22,11,03,15.50
2018,03,22,11,04,15.00
2018,03,22,11,05,10.00
2018,03,22,11,06,10.60
2018,03,22,11,07,12.60
2018,03,22,11,08,14.70
2018,03,22,11,09,21.30
2018,03,22,11,10,17.60
2018,03,22,11,11,18.10
2018,03,22,11,12,14.30
2018,03,22,11,13,12.60
2018,03,22,11,14,8.20
2018,03,22,11,15,11.70
2018,03,22,11,16,13.50
2018,03,22,11,17,11.20
2018,03,22,11,18,12.30
2018,03,22,11,19,13.70
2018,03,22,11,20,13.40
2018,03,22,11,21,15.00
2018,03,22,11,22,13.20
2018,03,22,11,23,17.60
2018,03,22,11,24,15.50
2018,03,22,11,25,10.00
2018,03,22,11,26,12.90
2018,03,22,11,27,14.50
2018,03,22,11,28,17.60
2018,03,22,11,29,20.60
2018,03,22,11,30,13.00
2018,03,22,11,31,13.40
2018,03,22,11,32,15.80
2018,03,22,11,33,11.00
2018,03,22,11,34,15.00
2018,03,22,11,35,8.30
2018,03,22,11,36,13.40
2018,03,22,11,37,13.80
2018,03,22,11,38,13.80
2018,03,22,11,39,11.60
2018,03,22,11,40,13.00
2018,03,22,11,41,16.70
2018,03,22,11,42,16.80
2018,03,22,11,43,11.90
2018,03,22,11,44,10.70
2018,03,22,11,45,7.40
2018,03,22,11,46,12.90
2018,03,22,11,47,12.30
2018,03,22,11,48,13.40
2018,03,22,11,49,10.60
2018,03,22,11,50,14.20
2018,03,22,11,51,18.70
2018,03,22,11,52,15.10
2018,03,22,11,53,15.10
2018,03,22,11,54,18.20
2018,03,22,11,55,16.90
2018,03,22,11,56,13.10
2018,03,22,11,57,10.10
2018,03,22,11,58,10.00
2018,03,22,11,59,10.10
2018,03,22,12,00,17.80
2018,03,22,12,01,22.40
2018,03,22,12,02,23.40
2018,03,22,12,03,15.60
2018,03,22,12,04,14.50
2018,03,22,12,05,9.10
2018,03,22,12,06,11.70
2018,03,22,12,07,21.10
2018,03,22,12,08,22.30
2018,03,22,12,09,18.40
2018,03,22,12,10,16.00
2018,03,22,12,11,19.90
2018,03,22,12,12,20.40
2018,03,22,12,13,17.00
2018,03,22,12,14,13.10
2018,03,22,12,15,22.50
2018,03,22,12,16,18.90
2018,03,22,12,17,14.70
2018,03,22,12,18,14.80
2018,03,22,12,19,18.90
2018,03,22,12,20,19.80
2018,03,22,12,21,11.00
2018,03,22,12,22,15.20
2018,03,22,12,23,16.30
2018,03,22,12,24,14.50
2018,03,22,12,25,15.20
2018,03,22,12,26,12.50
2018,03,22,12,27,14.90
2018,03,22,12,28,16.40
2018,03,22,12,29,10.10
2018,03,22,12,30,18.30
2018,03,22,12,31,18.90
2018,03,22,12,32,20.60
2018,03,22,12,33,15.00
2018,03,22,12,34,18.80
2018,03,22,12,35,17.10
2018,03,22,12,36,20.00
2018,03,22,12,37,18.20
2018,03,22,12,38,14.50
2018,03,22,12,39,13.90
2018,03,22,12,40,10.80
2018,03,22,12,41,21.30
2018,03,22,12,42,21.80
2018,03,22,12,43,17.50
2018,03,22,12,44,21.20
2018,03,22,12,45,20.70
2018,03,22,12,46,26.10
2018,03,22,12,47,21.90
2018,03,22,12,48,18.40
2018,03,22,12,49,13.10
2018,03,22,12,50,16.30
2018,03,22,12,51,18.30
2018,03,22,12,52,11.30
2018,03,22,12,53,10.90
2018,03,22,12,54,28.10
2018,03,22,12,55,26.10
2018,03,22,12,56,26.80
2018,03,22,12,57,18.60
2018,03,22,12,58,16.80
2018,03,22,12,59,18.60
2018,03,22,13,00,20.00
2018,03,22,13,01,23.30
2018,03,22,13,02,14.20
2018,03,22,13,03,16.40
2018,03,22,13,04,15.10
2018,03,22,13,05,19.80
2018,03,22,13,06,26.40
2018,03,22,13,07,25.40
2018,03,22,13,08,23.10
2018,03,22,13,09,26.60
2018,03,22,13,10,30.70
2018,03,22,13,11,22.80
2018,03,22,13,12,21.20
2018,03,22,13,13,15.70
2018,03,22,13,14,23.90
2018,03,22,13,15,21.80
2018,03,22,13,16,22.00
2018,03,22,13,17,19.50
2018,03,22,13,18,19.40
2018,03,22,13,19,18.30
2018,03,22,13,20,19.40
2018,03,22,13,21,16.90
2018,03,22,13,22,18.40
2018,03,22,13,23,21.40
2018,03,22,13,24,19.80
2018,03,22,13,25,18.70
2018,03,22,13,26,16.90
2018,03,22,13,27,15.60
2018,03,22,13,28,18.60
2018,03,22,13,29,20.10
2018,03,22,13,30,21.20
2018,03,22,13,31,11.90
2018,03,22,13,32,19.90
2018,03,22,13,33,20.60
2018,03,22,13,34,18.00
2018,03,22,13,35,25.10
2018,03,22,13,36,22.00
2018,03,22,13,37,14.80
2018,03,22,13,38,19.80
2018,03,22,13,39,19.10
2018,03,22,13,40,22.50
2018,03,22,13,41,20.00
2018,03,22,13,42,19.20
2018,03,22,13,43,21.40
2018,03,22,13,44,20.00
2018,03,22,13,45,19.80
2018,03,22,13,46,17.50
2018,03,22,13,47,14.40
2018,03,22,13,48,21.60
2018,03,22,13,49,19.00
2018,03,22,13,50,21.50
2018,03,22,13,51,23.90
2018,03,22,13,52,20.70
2018,03,22,13,53,13.60
2018,03,22,13,54,14.70
2018,03,22,13,55,14.30
2018,03,22,13,56,12.30
2018,03,22,13,57,20.60
2018,03,22,13,58,18.20
2018,03,22,13,59,19.90
2018,03,22,14,00,15.20
2018,03,22,14,01,13.50
2018,03,22,14,02,14.40
2018,03,22,14,03,10.40
2018,03,22,14,04,14.60
2018,03,22,14,05,18.10
2018,03,22,14,06,18.80
2018,03,22,14,07,16.70
2018,03,22,14,08,12.30
2018,03,22,14,09,12.10
2018,03,22,14,10,16.10
2018,03,22,14,11,13.80
2018,03,22,14,12,14.70
2018,03,22,14,13,12.00
2018,03,22,14,14,12.10
2018,03,22,14,15,16.70
2018,03,22,14,16,12.20
2018,03,22,14,17,18.20
2018,03,22,14,18,16.80
2018,03,22,14,19,17.40
2018,03,22,14,20,17.60
2018,03,22,14,21,19.70
2018,03,22,14,22,18.10
2018,03,22,14,23,16.10
2018,03,22,14,24,22.10
2018,03,22,14,25,22.50
2018,03,22,14,26,20.70
2018,03,22,14,27,18.80
2018,03,22,14,28,23.40
2018,03,22,14,29,27.10
2018,03,22,14,30,17.80
2018,03,22,14,31,19.70
2018,03,22,14,32,19.40
2018,03,22,14,33,14.40
2018,03,22,14,34,18.60
2018,03,22,14,35,18.40
2018,03,22,14,36,17.20
2018,03,22,14,37,26.00
2018,03,22,14,38,23.50
2018,03,22,14,39,25.10
2018,03,22,14,40,21.90
2018,03,22,14,41,14.60
2018,03,22,14,42,17.50
2018,03,22,14,43,17.30
2018,03,22,14,44,18.90
2018,03,22,14,45,22.90
2018,03,22,14,46,23.20
2018,03,22,14,47,26.50
2018,03,22,14,48,25.10
2018,03,22,14,49,26.90
2018,03,22,14,50,27.50
2018,03,22,14,51,23.70
2018,03,22,14,52,20.80
2018,03,22,14,53,24.30
2018,03,22,14,54,22.60
2018,03,22,14,55,29.20
2018,03,22,14,56,24.40
2018,03,22,14,57,37.80
2018,03,22,14,58,18.70
2018,03,22,14,59,18.40
2018,03,22,15,00,13.00
2018,03,22,15,01,15.20
2018,03,22,15,02,16.30
2018,03,22,15,03,20.10
2018,03,22,15,04,26.00
2018,03,22,15,05,18.40
2018,03,22,15,06,16.20
2018,03,22,15,07,21.00
2018,03,22,15,08,17.80
2018,03,22,15,09,10.50
2018,03,22,15,10,17.40
2018,03,22,15,11,15.90
2018,03,22,15,12,18.70
2018,03,22,15,13,19.20
2018,03,22,15,14,15.20
2018,03,22,15,15,19.50
2018,03,22,15,16,17.10
2018,03,22,15,17,15.20
2018,03,22,15,18,14.70
2018,03,22,15,19,12.60
2018,03,22,15,20,21.60
2018,03,22,15,21,17.00
2018,03,22,15,22,17.80
2018,03,22,15,23,21.60
2018,03,22,15,24,17.80
2018,03,22,15,25,18.60
2018,03,22,15,26,16.10
2018,03,22,15,27,18.40
2018,03,22,15,28,18.90
2018,03,22,15,29,12.70
2018,03,22,15,30,8.30
2018,03,22,15,31,11.50
2018,03,22,15,32,12.80
2018,03,22,15,33,11.90
2018,03,22,15,34,6.10
2018,03,22,15,35,12.00
2018,03,22,15,36,16.30
2018,03,22,15,37,16.60
2018,03,22,15,38,17.60
2018,03,22,15,39,11.20
2018,03,22,15,40,13.80
2018,03,22,15,41,15.50
2018,03,22,15,42,15.70
2018,03,22,15,43,12.30
2018,03,22,15,44,11.00
2018,03,22,15,45,13.00
2018,03,22,15,46,23.00
2018,03,22,15,47,21.50
2018,03,22,15,48,17.20
2018,03,22,15,49,17.70
2018,03,22,15,50,19.40
2018,03,22,15,51,28.50
2018,03,22,15,52,19.50
2018,03,22,15,53,21.50
2018,03,22,15,54,18.20
2018,03,22,15,55,12.90
2018,03,22,15,56,21.20
2018,03,22,15,57,19.40
2018,03,22,15,58,16.60
2018,03,22,15,59,14.20
2018,03,22,16,00,17.80
2018,03,22,16,01,16.50
2018,03,22,16,02,15.10
2018,03,22,16,03,19.00
2018,03,22,16,04,18.80
2018,03,22,16,05,16.20
2018,03,22,16,06,10.50
2018,03,22,16,07,20.40
2018,03,22,16,08,22.60
2018,03,22,16,09,17.00
2018,03,22,16,10,17.50
2018,03,22,16,11,18.60
2018,03,22,16,12,14.70
2018,03,22,16,13,15.30
2018,03,22,16,14,22.90
2018,03,22,16,15,23.30
2018,03,22,16,16,22.90
2018,03,22,16,17,14.40
2018,03,22,16,18,22.30
2018,03,22,16,19,17.80
2018,03,22,16,20,14.20
2018,03,22,16,21,13.40
2018,03,22,16,22,14.30
2018,03,22,16,23,12.30
2018,03,22,16,24,15.60
2018,03,22,16,25,10.40
2018,03,22,16,26,10.00
2018,03,22,16,27,18.10
2018,03,22,16,28,20.70
2018,03,22,16,29,21.60
2018,03,22,16,30,22.80
2018,03,22,16,31,22.90
2018,03,22,16,32,21.30
2018,03,22,16,33,23.00
2018,03,22,16,34,20.90
2018,03,22,16,35,24.20
2018,03,22,16,36,23.50
2018,03,22,16,37,23.70
2018,03,22,16,38,20.70
2018,03,22,16,39,18.20
2018,03,22,16,40,30.10
2018,03,22,16,41,25.80
2018,03,22,16,42,25.50
2018,03,22,16,43,28.40
2018,03,22,16,44,27.40
2018,03,22,16,45,22.80
2018,03,22,16,46,25.20
2018,03,22,16,47,29.70
2018,03,22,16,48,19.00
2018,03,22,16,49,22.10
2018,03,22,16,50,24.00
2018,03,22,16,51,20.90
2018,03,22,16,52,22.40
2018,03,22,16,53,22.80
2018,03,22,16,54,23.80
2018,03,22,16,55,20.20
2018,03,22,16,56,20.10
2018,03,22,16,57,19.80
2018,03,22,16,58,16.80
2018,03,22,16,59,21.40
2018,03,22,17,00,18.30
2018,03,22,17,01,15.80
2018,03,22,17,02,14.40
2018,03,22,17,03,14.30
2018,03,22,17,04,11.90
2018,03,22,17,05,13.20
2018,03,22,17,06,12.60
2018,03,22,17,07,12.20
2018,03,22,17,08,13.80
2018,03,22,17,09,15.10
2018,03,22,17,10,15.30
2018,03,22,17,11,17.00
2018,03,22,17,12,15.00
2018,03,22,17,13,15.30
2018,03,22,17,14,14.20
2018,03,22,17,15,14.50
2018,03,22,17,16,15.00
2018,03,22,17,17,16.00
2018,03,22,17,18,18.40
2018,03,22,17,19,15.00
2018,03,22,17,20,12.00
2018,03,22,17,21,16.30
2018,03,22,17,22,14.00
2018,03,22,17,23,17.70
2018,03,22,17,24,14.60
2018,03,22,17,25,13.70
2018,03,22,17,26,11.90
2018,03,22,17,27,9.40
2018,03,22,17,28,10.10
2018,03,22,17,29,14.20
2018,03,22,17,30,14.50
2018,03,22,17,31,17.80
2018,03,22,17,32,19.90
2018,03,22,17,33,12.90
2018,03,22,17,34,14.70
2018,03,22,17,35,11.80
2018,03,22,17,36,15.40
2018,03,22,17,37,11.10
2018,03,22,17,38,14.90
2018,03,22,17,39,14.80
2018,03,22,17,40,11.90
2018,03,22,17,41,12.40
2018,03,22,17,42,10.60
2018,03,22,17,43,18.10
2018,03,22,17,44,18.80
2018,03,22,17,45,19.20
2018,03,22,17,46,18.00
2018,03,22,17,47,9.40